"Pseudo-MPEC" for C3KCK72

Created 2020 Oct 19 11:07:13 UT using Find_Orb

Click here for an explanation of pseudo-MPECs

 
 Astrometry: 
     C3KCK72  C2020 10 16.46806807 50 40.54 +06 41 28.0    ~AGCb 21.30GVNEOCPG96
     C3KCK72  C2020 10 16.47321007 50 39.91 +06 41 19.4    ~AGCb 21.74GVNEOCPG96
     C3KCK72  C2020 10 16.48348507 50 38.67 +06 41 02.0    ~AGCb 21.30GVNEOCPG96
     C3KCK72 KC2020 10 16.50605107 50 35.94 +06 40 24.3    ~AGCb 21.56GVNEOCPV06
     C3KCK72 KC2020 10 16.50773007 50 35.72 +06 40 21.1    ~AGCb       VNEOCPV06
     C3KCK72 KC2020 10 16.50941007 50 35.56 +06 40 18.7    ~AGCb       VNEOCPV06
     C3KCK72 KC2020 10 17.46491307 48 44.58 +06 13 37.4    ~AHBb 21.03GVNEOCPV06
     C3KCK72 KC2020 10 17.46728907 48 44.28 +06 13 33.3    ~AHBb 20.95GVNEOCPV06
     C3KCK72 KC2020 10 17.46966607 48 44.00 +06 13 29.5    ~AHBb 20.78GVNEOCPV06
     C3KCK72 KC2020 10 17.47204207 48 43.71 +06 13 25.6    ~AHBb 21.00GVNEOCPV06
     C3KCK72 KC2020 10 18.48704607 46 44.02 +05 45 12.2    ~AIC7       VNEOCPI52
     C3KCK72 KC2020 10 18.49011707 46 43.62 +05 45 06.6    ~AIC7 21.79GVNEOCPI52
     C3KCK72 KC2020 10 18.49318807 46 43.23 +05 45 01.6    ~AIC7 21.04GVNEOCPI52
     C3KCK72 KC2020 10 19LU,pGYV[w1vfqwH/H?9jobu7Uo!79R1Astrometry@.q6UQlj(WgL01
     C3KCK72 KC2020 10 19n(p8f6+1+redacted;m`w#/xnHclick+herehmQY(%ld]32eR)WrL01
     C3KCK72 KC2020 10 19?c)$0C!3RT(!9bCfor,9V.v\T:?hM*tVlOYPSis/WexplanationL01

Station data:
(G96) Mt. Lemmon Survey  (N32.442754 W110.788720)  US/Arizona.  Observers T.
   A. Pruyne, B. M. Africano, E. J. Christensen, G. A. Farneth, D. C. Fuls,
   A. R. Gibbs, A. D. Grauer, H. Gröller, J. A. Johnson, R. A. Kowalski, S.
   M. Larson, G. J. Leonard, D. Rankin, R. L. Seaman, F. C. Shelly. 1.5-m
   reflector + 10K CCD.
(I52) Steward Observatory, Mt. Lemmon Station  (N32.442547 W110.788920)
   US/Arizona.  Observers T. A. Pruyne, B. M. Africano, E. J. Christensen, G.
   A. Farneth, D. C. Fuls, A. R. Gibbs, A. D. Grauer, H. Gröller, J. A.
   Johnson, R. A. Kowalski, S. M. Larson, G. J. Leonard, D. Rankin, R. L.
   Seaman, F. C. Shelly. 1.0-m reflector + CCD.
(L01) Višnjan Observatory, Tičan  (N45.290900 E13.749300)  Croatia.
   Observers K. Korlević, E. Pettarin. Measurer E. Pettarin. 1.0-m f/2.9
   reflector + CCD.
(V06) Catalina Sky Survey-Kuiper  (N32.416847 W110.732550)  US/Arizona.
   Observers T. A. Pruyne, B. M. Africano, E. J. Christensen, G. A. Farneth,
   D. C. Fuls, A. R. Gibbs, A. D. Grauer, H. Gröller, J. A. Johnson, R. A.
   Kowalski, S. M. Larson, G. J. Leonard, D. Rankin, R. L. Seaman, F. C.
   Shelly. 1.55-m reflector + CCD.

Orbital elements:  C3KCK72
   Perihelion 2020 Aug 18.848808 +/- 0.278 TT = 20:22:17 (JD 2459080.348808)
Epoch 2020 Oct 19.0 TT = JDT 2459141.5   Earth MOID: 0.0801   Ve: 0.0121
M  37.60650919 +/- 1.1              (J2000 ecliptic)          AutoNEOCP
n   0.61497589 +/- 0.0162           Peri.   87.82882 +/- 0.44
a   1.36950614 +/- 0.0241           Node   208.95945 +/- 0.58
e   0.6585378 +/- 0.0093            Incl.   17.19871 +/- 0.32
P   1.60/585.38d           H 20.4   G  0.15   U 10.0  
q 0.46763450 +/- 0.00519    Q 2.27137778 +/- 0.0511
From 16 observations 2020 Oct. 16-19; mean residual 0".19
Residuals in arcseconds: 
201016 G96  .11+  .08+    201017 V06  .03-  .20+    201018 I52  .11-  .30-    
201016 G96  .04-  .09+    201017 V06  .19-  .06+    201019 L01  .07+  .04-    
201016 G96  .04-  .10-    201017 V06  .04-  .22+    201019 L01  .21-  .01+    
201016 V06  .03-  .00     201017 V06  .04-  .28+    201019 L01  .06+  .29+    
201016 V06  .27-  .39-    201018 I52  .31+  .10+    
201016 V06  .38+  .03+    201018 I52  .02+  .40-    

Ephemerides (geocentric):
Date (UTC) HH   RA              Dec         delta   r     elong  mag " sig PA
---- -- -- --  -------------   -----------  ------ ------ -----  --- ---- ---
2020 10 19 11  07 44 47.488   +05 18 27.05  .53641 1.1238  89.1 21.5 .099  96
2020 10 19 12  07 44 42.468   +05 17 18.06  .53644 1.1243  89.2 21.5 .115 102
2020 10 19 13  07 44 37.444   +05 16 09.07  .53646 1.1248  89.2 21.5 .132 106
2020 10 19 14  07 44 32.417   +05 15 00.10  .53648 1.1252  89.3 21.5 .150 109
2020 10 19 15  07 44 27.387   +05 13 51.15  .53651 1.1257  89.3 21.5 .169 112
2020 10 19 16  07 44 22.354   +05 12 42.21  .53653 1.1262  89.4 21.5 .189 114
2020 10 19 17  07 44 17.317   +05 11 33.29  .53655 1.1266  89.4 21.5 .209 116
2020 10 19 18  07 44 12.276   +05 10 24.38  .53658 1.1271  89.5 21.5 .230 118
2020 10 19 19  07 44 07.233   +05 09 15.48  .53660 1.1276  89.6 21.5 .251 119
2020 10 19 20  07 44 02.186   +05 08 06.60  .53662 1.1281  89.6 21.5 .273 120
2020 10 19 21  07 43 57.135   +05 06 57.74  .53665 1.1285  89.7 21.5 .295 121
2020 10 19 22  07 43 52.081   +05 05 48.89  .53667 1.1290  89.7 21.5 .317 122
2020 10 19 23  07 43 47.024   +05 04 40.05  .53669 1.1295  89.8 21.5 .340 123
2020 10 20 00  07 43 41.963   +05 03 31.23  .53671 1.1299  89.8 21.5 .364 124
2020 10 20 01  07 43 36.899   +05 02 22.43  .53674 1.1304  89.9 21.5 .387 125
2020 10 20 02  07 43 31.831   +05 01 13.64  .53676 1.1309  90.0 21.5 .411 125
2020 10 20 03  07 43 26.760   +05 00 04.86  .53678 1.1314  90.0 21.5 .436 126
2020 10 20 04  07 43 21.685   +04 58 56.10  .53681 1.1318  90.1 21.5 .461 126
2020 10 20 05  07 43 16.607   +04 57 47.36  .53683 1.1323  90.1 21.5 .486 127
2020 10 20 06  07 43 11.525   +04 56 38.63  .53685 1.1328  90.2 21.5 .512 127
2020 10 20 07  07 43 06.440   +04 55 29.92  .53687 1.1332  90.2 21.5 .538 128
2020 10 20 08  07 43 01.351   +04 54 21.22  .53690 1.1337  90.3 21.5 .564 128
2020 10 20 09  07 42 56.259   +04 53 12.54  .53692 1.1342  90.4 21.5 .591 128
2020 10 20 10  07 42 51.163   +04 52 03.87  .53694 1.1347  90.4 21.5 .618 129
2020 10 20 11  07 42 46.063   +04 50 55.22  .53696 1.1351  90.5 21.5 .645 129
2020 10 20 12  07 42 40.960   +04 49 46.58  .53698 1.1356  90.5 21.5 .673 129
2020 10 20 13  07 42 35.854   +04 48 37.96  .53701 1.1361  90.6 21.5 .701 130
2020 10 20 14  07 42 30.743   +04 47 29.35  .53703 1.1365  90.6 21.5 .729 130
2020 10 20 15  07 42 25.629   +04 46 20.76  .53705 1.1370  90.7 21.5 .758 130
2020 10 20 16  07 42 20.512   +04 45 12.19  .53707 1.1375  90.8 21.5 .787 131
2020 10 20 17  07 42 15.390   +04 44 03.63  .53709 1.1379  90.8 21.5 .816 131
2020 10 20 18  07 42 10.265   +04 42 55.09  .53712 1.1384  90.9 21.5 .846 131
2020 10 20 19  07 42 05.137   +04 41 46.56  .53714 1.1389  90.9 21.5 .876 131
2020 10 20 20  07 42 00.004   +04 40 38.05  .53716 1.1393  91.0 21.5 .907 132
2020 10 20 21  07 41 54.868   +04 39 29.55  .53718 1.1398  91.0 21.5 .937 132
2020 10 20 22  07 41 49.729   +04 38 21.07  .53720 1.1403  91.1 21.5 .968 132
2020 10 20 23  07 41 44.585   +04 37 12.61  .53722 1.1408  91.2 21.5 1.00 132
2020 10 21 00  07 41 39.438   +04 36 04.16  .53725 1.1412  91.2 21.5 1.03 133
2020 10 21 01  07 41 34.287   +04 34 55.72  .53727 1.1417  91.3 21.5 1.06 133
2020 10 21 02  07 41 29.132   +04 33 47.31  .53729 1.1422  91.3 21.5 1.10 133
2020 10 21 03  07 41 23.974   +04 32 38.91  .53731 1.1426  91.4 21.5 1.13 133
2020 10 21 04  07 41 18.812   +04 31 30.52  .53733 1.1431  91.4 21.5 1.16 134
2020 10 21 05  07 41 13.645   +04 30 22.15  .53735 1.1436  91.5 21.5 1.19 134
2020 10 21 06  07 41 08.476   +04 29 13.80  .53737 1.1440  91.6 21.5 1.23 134
2020 10 21 07  07 41 03.302   +04 28 05.46  .53740 1.1445  91.6 21.5 1.26 134
2020 10 21 08  07 40 58.124   +04 26 57.14  .53742 1.1450  91.7 21.5 1.30 134
2020 10 21 09  07 40 52.943   +04 25 48.84  .53744 1.1454  91.7 21.5 1.33 135
2020 10 21 10  07 40 47.758   +04 24 40.55  .53746 1.1459  91.8 21.5 1.36 135